Other Surface Observations
Issued by NWS

Home | Current Version | Previous Version | Text Only | Print | Product List | Glossary On
Versions: 1 2 3 4 5 6 7 8 9 10 11 12 13 14 15 16 17 18 19 20 21 22 23 24 25 26 27 28 29 30 31 32 33 34 35 36 37 38 39 40 41 42 43 44 45 46 47 48 49 50
000
SXUS52 KTAE 180818
OSOTAE
OSOTAE
North Florida/South Alabama/Southwest Georgia Weather Roundup
National Weather Service Tallahassee Florida
400 AM EDT THU SEP 18 2014

Note: "fair" indicates few or no clouds below 12,000 feet with no
significant weather and/or obstructions to visibility.

!FLZ017-115-028-034-025-180900
...North Florida...

CITY           SKY/WX    TMP DP  RH WIND       PRES   REMARKS
TALLAHASSEE    CLEAR     71  70  96 CALM      29.88F
APALACHICOLA   CLEAR     74  70  87 NE3       29.88F
PERRY          CLEAR     72  72 100 CALM      29.89F
CROSS CITY       N/A     72  69  90 CALM      29.87F
HOMERVILLE     FAIR      72  72 100 CALM      29.89S
JACKSONVILLE   PTCLDY    72  71  97 NW3       29.87F
$$

!FLZ112-006-005-002-011-180900
...Florida Panhandle...

CITY           SKY/WX    TMP DP  RH WIND       PRES   REMARKS
MARIANNA       CLEAR     71  71 100 CALM      29.88F
BONIFAY        FAIR      70  70 100 CALM      29.89F FOG
PANAMA CITY NW FAIR      73  70  90 CALM      29.89S
TYNDALL AFB    CLEAR     72  72  99 N2        29.89S
TYND DRONE APT FAIR      72  71  97 MISG      29.87F
DE FUNIAK SPR  FAIR      72  71  98 CALM      29.91S
EGLIN AFB      MOCLDY    74  71  88 CALM      29.90S
DESTIN         PTCLDY    77  71  82 CALM      29.89F
HURLBURT       PTCLDY    73  68  83 N3        29.89S
CRESTVIEW      PTCLDY    70  69  97 CALM      29.91S FOG
PENSACOLA      CLEAR     73  72  96 CALM      29.89S
$$

!ALZ063-066-180900
...South Alabama...

CITY           SKY/WX    TMP DP  RH WIND       PRES   REMARKS
DOTHAN         CLEAR     71  69  93 NW3       29.94S
OZARK CAIRNS   CLEAR     69  68  96 NW2       29.90S
FT RUCKER HELI CLEAR     68  67  96 MISG      29.90S
RUCKER HELI 3  FAIR      70  69  96 N3        29.93F
RUCKER HELI 2  FAIR      69  68  96 N3        29.90S
FLORALA APT    CLEAR     71  68  90 N3        29.92F
ANDALUSIA      CLEAR     74  68  81 CALM      29.91F
TROY           CLEAR     67  65  93 CALM      29.92F FOG
EUFALA         FAIR      69  66  90 CALM      29.90F
MOBILE         CLOUDY    73  72  96 CALM      29.92S
$$

!GAZ120>161-180900
...Southwest and South Central Georgia...

CITY           SKY/WX    TMP DP  RH WIND       PRES   REMARKS
THOMASVILLE    FAIR      72  72 100 CALM      29.89F
BAINBRIDGE     CLEAR     73  72  94 NW3       29.88F
MOODY AFB      CLEAR     74  70  89 W2        29.88F
VALDOSTA       CLEAR     71  69  93 CALM      29.89F FOG
MOULTRIE       CLEAR     72  72 100 CALM      29.90S
BLAKELY        CLEAR     70  70 100 CALM        N/A
ALBANY         CLEAR     71  69  93 NW3       29.91F
TIFTON         FAIR      72  71  96 NW5       29.89F
FITZGERALD     FAIR      69  66  91 CALM      29.91F FOG
CORDELE        FAIR      69  67  94 CALM      29.91S
AMERICUS       FAIR      64  64 100 CALM      29.92S
$$

!GMZ750-755-770-775-180900
...Coastal and Buoy Obs...

STATION/POSITION TIME  TEMP    WIND        PRES    VSBY  WAVE
                       AIR SEA DIR/SP/G                  HT/PER
                 (UTC) (F)     (DEG/KT/KT) (MB)    (MI)  (FT/S)
KEATON BEACH     0800   76      60/  2/  2 1011.7F
CEDAR KEY        0800   80     330/  1/  1 1012.1F
C TOWER          0800   81     320/  5/  5 1011.8F
APALACHICOLA BUO 0800   81 85   CALM  /  2 1011.8F         1/ 5
PANAMA CITY BUOY 0739   81 85   10/  2/  4 1011.9F         1/ 6
MOBILE BUOY      0737   82 85  310/  4/  6 1012.8S         1/ 4
ORANGE BCH AL BU 0800   83 85  330/  4/  6 1012.4R         1/ 8
$$



USA.gov is the U.S. government's official web portal to all federal, state and local government web resources and services.